Location: Beneden-Haastrecht
(52.0012°N, 4.7557°E)
Time: 11:01:49
(UTC+00:00)

Cosmos 1745 Rocket - Pass Details

Date: 24 October 2020
Orbit: 953 x 997 km, 83.0° (Epoch: 24 November)

Event Time Altitude Azimuth Distance (km) Brightness Sun altitude
Rises 17:43:54 0° 352° (N) 3,681 7.1 -12.4°
Reaches altitude 10° 17:46:34 10° 359° (N) 2,737 6.3 -12.8°
Maximum altitude 17:52:30 43° 70° (ENE) 1,361 4.3 -13.7°
Drops below altitude 10° 17:58:28 10° 141° (SE) 2,747 6.0 -14.6°
Sets 18:01:08 0° 148° (SSE) 3,697 6.7 -15.0°
